STARLINK-11630, 63111

Orbit data source: Space-Track

STARLINK-11630, 63111 is a payload satellite owned by SpaceX/Seattle (US) in LEO that was launched on Thu, 27 Feb 2025 UTC via an FALCON 9 launch vehicle from the Air Force Eastern Test Range (AFETR). Payload-class satellites include a variety of spacecraft equipped with specific instruments for various scientific and technological missions. These include communications satellites like Starlink; space stations such as the ISS; scientific satellites like the Hubble; Earth observation satellites from companies like Planet Labs, Umbra, and HawkEye 360; GPS; miniature CubeSats for education and research; and military/defense satellites.

Loading next visibility...
Identifier
63111, 2025-039H
Orbit
LEO
Last TLE update
8 hours ago
Origin
Manufacturer
SpaceX/Seattle
Mission
Operational Commercial Communications
Bus & Motor
STARLINK V2M, Unknown motor
Mass
730 kg wet, ~700 kg dry
Launch date (UTC)
2025-02-27 (4 months ago)
Launch vehicle
FALCON 9
Launch site
Air Force Eastern Test Range (AFETR)
Object type
Payload
Rocket body
Debris
Shape & HBR
Box + 2 Pan, 29 m
Radar Cross Section
36.964 m², Large (>1 m²)

Expand to show TLE details & history

TLE from 8 hours ago
0 STARLINK-11630
1 63111U 25039H   25186.61455180  .00159020  00000-0  12171-2 0  9994
2 63111  42.9995 286.4276 0001920 273.7629  86.3019 15.70880851 20759
Epoch: 2025-07-05T14:44Z
TLE epoch observation values (Epoch: 2025-07-05T14:44:57.275Z)
Latitude
-0.00003°
Longitude
141.33886°
Altitude
356.066 km
Speed
7.697 km/s
True Right ascension
19h 05m 42s
True Declination
0° 00' 00"
Sunlit
Object was in full shadow at epoch
Visualization orbit readout
Latitude
3.66469°
Longitude
-44.6807°
Altitude
355.692 km
Speed
7.698 km/s
Apparent Right ascension
03h 47m 21s
Apparent Declination
-29° 24' 08"
Sunlit
Object is in daylight
Visualization observer readout
Local Sidereal Time
11:03:24
Azimuth
256.717° W
Elevation
-32.187°
Doppler factor
1
Orbital elements
Apogee altitude
359.653 km
Perigee altitude
357.067 km
Semi-major axis
6,736.497 km
Eccentricity
0.00019
Inclination
42.9995°
RAAN
286.4276°
Arg. of periapsis
273.7629°
True anomaly
Unknown
Mean anomaly
86.3019°
Eccentric anomaly
Unknown
Mean motion
3.92547 °/min
Orbital period
91.71 mins
BSTAR
0.0012171
Loading maneuver chart data...
Loading SW <> Apogee altitude chart data...
Loading historical data...
Loading historical data...
Loading historical data...
Loading historical data...
Loading historical data...
Loading historical data...
Loading historical data...

STARLINK-11630 Visibility forecast

Observer location: undefined°, undefined°

Span
Click to sort rows by Start time (UTC) header in descending order
Start Az.
Max El. time (UTC)
Max El. Az.
Max El.
End time (UTC)
End Az.
4 mins2025-07-06 10:51:06.382Z243.746° WSW2025-07-06 10:52:06.382Z228.315° WSW41.994°2025-07-06 10:55:06.382Z73.405° E
4 mins2025-07-06 12:27:06.382Z294.127° NW2025-07-06 12:29:06.382Z24.265° NE32.85°2025-07-06 12:31:06.382Z68.847° E
4 mins2025-07-06 14:03:06.382Z294.333° NW2025-07-06 14:05:06.382Z34.112° NE42.361°2025-07-06 14:07:06.382Z95.747° ESE
|